Location: Lombard
(41.8800°N, 88.0080°W)
Time: 11:19:13
(UTC-06:00)

Explorer 7 - All Passes

Search period start: 07 February 2023 00:00
Search period end: 17 February 2023 00:00
Orbit: 480 x 660 km, 50.3° (Epoch: 06 February)

Date Brightness Start Highest point End Pass type
(mag) Time Alt. Az. Time Alt. Az. Time Alt. Az.
07 Feb - 08:29:15 10° SSE 08:31:06 13° SE 08:33:00 10° E daylight
07 Feb - 10:06:48 10° SW 10:10:43 83° SE 10:14:54 10° ENE daylight
07 Feb - 11:47:39 10° WNW 11:51:21 32° NNW 11:55:15 10° NE daylight
07 Feb - 13:28:49 10° NW 13:32:31 28° N 13:36:24 10° ENE daylight
07 Feb - 15:09:04 10° NW 15:13:26 58° NNE 15:18:02 10° ESE daylight
07 Feb - 16:49:33 10° WNW 16:53:38 33° SW 16:57:52 10° SSE daylight
08 Feb - 08:28:53 10° S 08:31:47 20° SE 08:34:47 10° E daylight
08 Feb - 10:07:43 10° WSW 10:11:38 69° NNW 10:15:49 10° NE daylight
08 Feb - 11:48:53 10° WNW 11:52:27 28° N 11:56:13 10° NE daylight
08 Feb - 13:29:49 10° NW 13:33:37 30° NNE 13:37:37 10° ENE daylight
08 Feb - 15:09:58 10° WNW 15:14:24 78° NNE 15:19:03 10° ESE daylight
08 Feb - 16:50:50 10° W 16:54:24 23° SW 16:58:03 10° S daylight
09 Feb - 08:29:06 10° SSW 08:32:30 31° SE 08:36:05 10° ENE daylight
09 Feb - 10:08:46 10° WSW 10:12:36 50° NNW 10:16:41 10° NE daylight
09 Feb - 11:50:04 10° WNW 11:53:34 26° N 11:57:15 10° NE daylight
09 Feb - 13:30:45 10° NW 13:34:41 34° NNE 13:38:50 10° E daylight
09 Feb - 15:10:52 10° WNW 15:15:18 77° SSW 15:19:56 10° SE daylight
09 Feb - 16:52:30 10° W 16:55:05 15° SW 16:57:44 10° SSW daylight
10 Feb - 08:29:36 10° SW 08:33:17 48° SE 08:37:11 10° ENE daylight
10 Feb - 10:09:54 10° W 10:13:37 39° NNW 10:17:33 10° NE daylight
10 Feb - 11:51:12 10° WNW 11:54:40 25° N 11:58:19 10° ENE daylight
10 Feb - 13:31:39 10° NW 13:35:43 41° NNE 13:40:01 10° E daylight
10 Feb - 15:11:50 10° WNW 15:16:08 53° SW 15:20:39 10° SE daylight
11 Feb - 06:53:35 10° SE 06:54:34 11° SE 06:55:34 10° ESE daylight
11 Feb - 08:30:18 10° SW 08:34:06 74° SE 08:38:08 10° ENE daylight
11 Feb - 10:11:04 10° W 10:14:39 32° NNW 10:18:25 10° NE daylight
11 Feb - 11:52:16 10° NW 11:55:46 26° N 11:59:27 10° ENE daylight
11 Feb - 13:32:30 10° NW 13:36:42 53° NNE 13:41:07 10° ESE daylight
11 Feb - 15:12:52 10° WNW 15:16:55 36° SW 15:21:09 10° SSE daylight
12 Feb - 06:52:39 10° S 06:55:12 17° SE 06:57:48 10° E daylight
12 Feb - 08:31:10 10° WSW 08:34:59 76° NNW 08:39:01 10° NE daylight
12 Feb - 10:12:15 10° WNW 10:15:42 28° N 10:19:20 10° NE daylight
12 Feb - 11:53:14 10° NW 11:56:50 28° N 12:00:37 10° ENE daylight
12 Feb - 13:33:21 10° NW 13:37:37 71° NNE 13:42:08 10° ESE daylight
12 Feb - 15:14:03 10° W 15:17:39 24° SW 15:21:22 10° S daylight
13 Feb - 06:52:41 10° SSW 06:55:53 27° SE 06:59:11 10° ENE daylight
13 Feb - 08:32:08 10° WSW 08:35:53 54° NNW 08:39:50 10° NE daylight
13 Feb - 10:13:24 10° WNW 10:16:46 25° N 10:20:17 10° NE daylight
13 Feb - 11:54:08 10° NW 11:57:52 32° NNE 12:01:48 10° E daylight
13 Feb - 13:34:12 10° WNW 13:38:29 84° SSW 13:43:01 10° SE daylight
13 Feb - 15:15:33 10° W 15:18:20 16° SW 15:21:10 10° S daylight
14 Feb - 06:53:03 10° SSW 06:56:36 41° SE 07:00:17 10° ENE daylight
14 Feb - 08:33:11 10° W 08:36:50 40° NNW 08:40:39 10° NE daylight
14 Feb - 10:14:31 10° WNW 10:17:50 24° N 10:21:17 10° NE daylight
14 Feb - 11:54:59 10° NW 11:58:51 38° NNE 12:02:57 10° E daylight
14 Feb - 13:35:06 10° WNW 13:39:18 59° SW 13:43:44 10° SE daylight
14 Feb - 15:18:18 10° WSW 15:18:57 10° SW 15:19:36 10° SW daylight
15 Feb - 06:53:39 10° SW 06:57:22 65° SE 07:01:14 10° ENE daylight
15 Feb - 08:34:19 10° W 08:37:48 32° NNW 08:41:29 10° NE daylight
15 Feb - 10:15:32 10° NW 10:18:52 25° N 10:22:22 10° ENE daylight
15 Feb - 11:55:48 10° NW 11:59:48 47° NNE 12:04:02 10° E daylight
15 Feb - 13:36:04 10° WNW 13:40:03 39° SW 13:44:15 10° SSE daylight
16 Feb - 05:16:19 10° SSE 05:18:28 15° SE 05:20:38 10° E visible
16 Feb - 06:54:25 10° WSW 06:58:10 84° NNW 07:02:05 10° ENE daylight
16 Feb - 08:35:27 10° WNW 08:38:48 28° NNW 08:42:19 10° NE daylight
16 Feb - 10:16:30 10° NW 10:19:54 26° N 10:23:29 10° ENE daylight
16 Feb - 11:56:35 10° NW 12:00:41 63° NNE 12:05:02 10° ESE daylight
16 Feb - 13:37:10 10° WNW 13:40:45 26° SW 13:44:31 10° SSE daylight
